Location: Peterborough
(44.3091°N, 78.3197°W)
Time: 07:23:49
(UTC-04:00)

A-11 Canister half - Pass Details

Date: 23 March 2023
Orbit: 1513 x 1686 km, 47.2° (Epoch: 04 June)

Event Time Altitude Azimuth Distance (km) Brightness Sun altitude
Rises 00:07:14 0° 244° (WSW) 4,833 11.6 -42.0°
Reaches altitude 10° 00:10:19 10° 244° (WSW) 3,869 11.0 -42.2°
Enters shadow 00:10:23 10° 244° (WSW) 3,845 11.0 -42.2°
Exits shadow 00:29:31 14° 71° (ENE) 3,643 10.9 -43.4°
Drops below altitude 10° 00:30:32 10° 71° (ENE) 3,955 11.1 -43.5°
Sets 00:33:43 0° 71° (ENE) 4,944 11.7 -43.6°
